Regional Weather Roundup
Issued by NWS Upton, NY

Current Version | Previous Version | Text Only | Print | Product List | Glossary On
Versions: 1 2 3 4 5 6 7 8 9 10 11 12 13 14 15 16 17 18 19 20 21 22 23 24 25 26 27 28 29 30 31 32 33 34 35 36 37 38 39 40 41 42 43 44 45 46 47 48 49 50
000
ASUS41 KOKX 260108
RWROKX

REGIONAL WEATHER ROUNDUP
NATIONAL WEATHER SERVICE NEW YORK NY
900 PM EDT MON MAY 25 2015

NOTE: "FAIR" INDICATES FEW OR NO CLOUDS BELOW 12,000 FEET WITH NO
SIGNIFICANT WEATHER AND/OR OBSTRUCTIONS TO VISIBILITY.

NYZ071-072-176-178-NJZ106-104-260200-
NEW YORK CITY METRO AREA


CITY           SKY/WX    TMP DP  RH WIND       PRES   REMARKS
CENTRAL PARK   CLEAR     78  55  44 SW8       30.19R
LAGUARDIA APRT MOCLDY    74  56  53 S9        30.17R
KENNEDY INTL   MOCLDY    66  56  70 S23G29    30.20R
NEWARK/LIBERTY MOCLDY    79  56  45 S16       30.16S
BRNX BOT. GARD   N/A     72  57  60 SE5       30.17S
TETERBORO      CLEAR     80  55  42 S13G23    30.14S
$$

NYZ177-179-078>081-260200-
LONG ISLAND NEW YORK

CITY           SKY/WX    TMP DP  RH WIND       PRES   REMARKS
FARMINGDALE    PTCLDY    67  55  65 SW17G25   30.20R
ISLIP          MOCLDY    66  54  65 SW16G32   30.19S
SHIRLEY        PTCLDY    66  55  67 S15G21    30.22R
WESTHAMPTON    PTCLDY    61  56  83 SW12G20   30.23R
MONTAUK POINT    N/A     60  55  83 S10G22    30.23S
$$

NYZ052-065-067-260200-
HUDSON VALLEY

CITY           SKY/WX    TMP DP  RH WIND       PRES   REMARKS
WHITE PLAINS   PTCLDY    70  57  63 S8        30.16S
NEWBURGH       NOT AVBL
MONTGOMERY       N/A     76  55  48 SW9       30.12
POUGHKEEPSIE   PTCLDY    79  55  43 VRB5      30.11R
ALBANY         MOCLDY    82  55  39 S10       30.05R
$$

NJZ001-105-106-008-010-013-015-019>022-104-260200-
NEW JERSEY

CITY           SKY/WX    TMP DP  RH WIND       PRES   REMARKS
NEWARK/LIBERTY MOCLDY    79  56  45 S16       30.16S
TETERBORO      CLEAR     80  55  42 S13G23    30.14S
CALDWELL       PTCLDY    78  55  44 VRB7      30.16R
MORRISTOWN     PTCLDY    77  57  50 MISG        N/A
SOMERVILLE     MOCLDY    75  57  53 S3        30.15S
SUSSEX         PTCLDY    76  56  49 SW8       30.17R
ANDOVER          N/A     75  57  53 VRB3      30.17R
TRENTON        MOCLDY    76  57  51 SW10G21   30.18S
MILLVILLE      CLEAR     71  57  61 S8        30.23S
ATLANTIC CITY  PTCLDY    69  55  60 S15       30.24S
WRIGHTSTOWN    PTCLDY    74  56  54 SW14      30.18R
TOMS RIVER     PTCLDY   N/A N/A N/A S10       30.22R
BELMAR         PTCLDY    73  55  53 S9G16     30.21R
$$

PAZ047>061-062-071-260200-
EASTERN PENNSYLVANIA

CITY           SKY/WX    TMP DP  RH WIND       PRES   REMARKS
PHILADELPHIA   PTCLDY    77  58  51 S10       30.20S
ALLENTOWN      PTCLDY    77  58  51 SW12      30.17R
SCRANTON       PTCLDY    77  56  48 MISG      30.14R
$$

CTZ002-004>006-009-010-012-RIZ004-006-007-MAZ004-011-015-260200-
SOUTHERN NEW ENGLAND
 IN CT

CITY           SKY/WX    TMP DP  RH WIND       PRES   REMARKS
BRADLEY INTL   CLOUDY    73  57  57 S15       30.13S
HARTFORD       MOCLDY    71  57  61 S10       30.15R
DANBURY        MOCLDY    72  55  55 S9        30.17R
WTRBRY/OXFORD  MOCLDY    70  55  60 S9        30.19R
BRIDGEPORT     PTCLDY    65  55  70 S16       30.16S
MERIDEN        MOCLDY    70  56  61 S7        30.17R
NEW HAVEN      MOCLDY    66  55  67 SW9G17    30.18S
CHESTER        FAIR      64  55  72 S10G17    30.21R
GROTON         PTCLDY    63  55  75 SW9       30.20F
WILLIMANTIC    PTCLDY    70  57  63 S8        30.18S

 IN RI

CITY           SKY/WX    TMP DP  RH WIND       PRES   REMARKS
PROVIDENCE     MOCLDY    64  56  75 S8        30.21R
BLOCK ISLAND   CLEAR     57  52  82 SW16G23   30.22S
WESTERLY       CLEAR     60  55  83 SW7       30.22F

 IN MA

CITY           SKY/WX    TMP DP  RH WIND       PRES   REMARKS
BOSTON         MOCLDY    68  56  65 S12       30.16R
WORCESTER      CLOUDY    70  53  54 SW17G24   30.17S
WESTFIELD      MOCLDY    74  56  53 S10       30.13R
PROVINCETOWN   CLOUDY    61  54  77 S14       30.21S
NANTUCKET      CLOUDY    58  55  90 SW9       30.26S
$$

ANZ330-335-338-340-345-350-353-355-260200-
COASTAL MARINE OBSERVATIONS


STATION/POSITION TIME  SKY/WX   TEMP    WIND        PRES    VSBY  WAVE
                                AIR SEA DIR/SP/G                  HT/PER
                 (UTC)          (F)     (DEG/KT/KT) (MB)    (MI)  (FT/S)
NY HARB ENTRANCE 0050            62 56  200/ 19/ 23 1022.1          4/ 6
4S FIRE IS       0003               55                N/A           5/ 5
20S FIRE ISLAND  0050            61 56  210/ 17/ 21 1023.2          4/ 5
GREAT SOUTH BAY  NOT AVBL
23SW MTP         0050            58 53  220/ 17/ 21 1023.0          3/ 5
HUDSON CANYON    NOT AVBL
KINGS POINT      0000            69 59  190/ 13/ 16 1020.8
CENTRAL LI SOUND 0030            62 55  200/ 16/ 19   N/A
EASTERN LI SOUND 0000            58     300/  2/  4   N/A
ROBBINS REEF     0000            80     210/ 16/ 20 1020.2
$$


>>>>>>>>>>>>>>>>>>>>>>>>>>>> KEY <<<<<<<<<<<<<<<<<<<<<<<<<<<
>                                                          <
>     SKY/WX - SKY CONDITION/PRESENT WEATHER               <
>     TMP    - TEMPERATURE IN FAHRENHEIT                   <
>     DP     - DEWPOINT IN FAHRENHEIT                      <
>     RH     - RELATIVE HUMIDITY IN PERCENT                <
>     WIND   - DIRECTION AND SPEED IN MPH                  <
>     PRES   - MEAN SEA LEVEL PRESSURE IN INCHES OF HG     <
>     WCI    - WIND CHILL INDEX                            <
>     VSB    - VISIBILITY IN MILES                         <
>     HX     - HEAT INDEX                                  <
>     TC     - TEMPERATURE IN CELSIUS                      <
>     VRB    - VARIABLE WIND DIRECTION                     <
>                                                          <
>>>>>>>>>>>>>>>>>>>>>>>>>>>> KEY <<<<<<<<<<<<<<<<<<<<<<<<<<<





USA.gov is the U.S. government's official web portal to all federal, state and local government web resources and services.